CW0121 Weather Reports


time (UTC)temp
C
wind
direction
speed
KPH
gust
KPH
rain 1hr
cm
rain 24hr
cm
rain mn
cm
humidity
%
barometer
mb
20260504082006 11 37 16.1 32.2 0.00 0.00 0.00 59 1000.7
20260504081518 12 323 16.1 25.7 0.00 0.00 0.00 58 1000.7
20260504081505 12 314 16.1 25.7 0.00 0.00 0.00 59 998.4
20260504081010 12 16 12.9 32.2 0.00 0.00 0.00 58 1000.5
20260504080507 13 347 17.7 38.6 0.00 0.00 0.00 57 1000.5
20260504050504 12 214 14.5 20.9 0.00 0.00 0.00 51 1000.1
20260504050020 12 213 16.1 20.9 0.00 0.00 0.00 51 1000.1
20260504045506 12 212 16.1 20.9 0.00 0.00 0.00 50 1000.1
20260504045007 12 216 16.1 20.9 0.00 0.00 0.00 50 1000.1
20260504044535 12 216 12.9 17.7 0.00 0.00 0.00 50 998.0
20260504044525 12 217 12.9 17.7 0.00 0.00 0.00 50 1000.2
20260504044006 12 212 12.9 19.3 0.00 0.00 0.00 49 1000.2
20260504043503 12 217 12.9 19.3 0.00 0.00 0.00 49 1000.3
20260504043038 12 214 12.9 17.7 0.00 0.00 0.00 49 998.2
20260504043009 12 215 12.9 19.3 0.00 0.00 0.00 48 1000.4
20260504042504 12 227 12.9 19.3 0.00 0.00 0.00 48 1000.5
20260504042004 12 212 14.5 20.9 0.00 0.00 0.00 47 1000.6
20260504041524 12 205 12.9 20.9 0.00 0.00 0.00 47 998.5
20260504041512 12 214 14.5 20.9 0.00 0.00 0.00 47 1000.7
20260504041004 12 221 12.9 19.3 0.00 0.00 0.00 47 1000.7
20260504040505 12 212 12.9 19.3 0.00 0.00 0.00 46 1000.8
20260504040023 12 224 12.9 19.3 0.00 0.00 0.00 46 998.8
20260504040017 12 204 14.5 19.3 0.00 0.00 0.00 46 1001.0
20260504035505 12 217 12.9 17.7 0.00 0.00 0.00 46 1001.1
20260504035007 12 212 11.3 16.1 0.00 0.00 0.00 45 1001.2
20260504034520 12 203 11.3 17.7 0.00 0.00 0.00 45 1001.2
20260504034006 13 214 12.9 17.7 0.00 0.00 0.00 44 1001.3
20260504033506 12 213 14.5 17.7 0.00 0.00 0.00 44 1001.4
20260504033022 12 214 12.9 16.1 0.00 0.00 0.00 44 1001.5
20260504033017 12 207 12.9 16.1 0.00 0.00 0.00 44 999.3
20260504032507 12 214 11.3 16.1 0.00 0.00 0.00 44 1001.6
20260504032003 13 216 11.3 16.1 0.00 0.00 0.00 44 1001.7
20260504031518 13 193 11.3 16.1 0.00 0.00 0.00 44 999.5
20260504031508 13 207 12.9 16.1 0.00 0.00 0.00 44 1001.7
20260504031003 13 200 11.3 16.1 0.00 0.00 0.00 43 1001.8
20260504030505 13 183 12.9 17.7 0.00 0.00 0.00 42 1001.9
20260504030014 13 194 11.3 17.7 0.00 0.00 0.00 41 999.7
20260504025505 13 213 14.5 17.7 0.00 0.00 0.00 40 1001.9
20260504025003 13 209 12.9 16.1 0.00 0.00 0.00 40 1001.9
20260504024519 13 205 12.9 16.1 0.00 0.00 0.00 40 1002.1
20260504024512 13 215 11.3 16.1 0.00 0.00 0.00 41 999.8
20260504024006 13 196 12.9 16.1 0.00 0.00 0.00 40 1002.1
20260504023506 13 204 11.3 17.7 0.00 0.00 0.00 40 1002.1
20260504023025 13 217 11.3 17.7 0.00 0.00 0.00 39 1002.3
20260504023009 13 188 11.3 17.7 0.00 0.00 0.00 40 1000.0
20260504022506 14 215 11.3 17.7 0.00 0.00 0.00 39 1002.3
20260504022009 14 223 11.3 14.5 0.00 0.00 0.00 39 1002.4
20260504021527 14 201 11.3 12.9 0.00 0.00 0.00 39 1002.4
20260504021506 14 214 9.7 12.9 0.00 0.00 0.00 39 1000.2
20260504021008 14 208 9.7 14.5 0.00 0.00 0.00 39 1002.4
20260504020502 15 197 9.7 14.5 0.00 0.00 0.00 38 1002.5
20260504020013 15 212 9.7 12.9 0.00 0.00 0.00 37 1002.4
20260504020005 15 212 9.7 12.9 0.00 0.00 0.00 38 1000.4
20260504015503 15 198 9.7 12.9 0.00 0.00 0.00 37 1002.5
20260504015003 15 214 9.7 12.9 0.00 0.00 0.00 36 1002.7
20260504014513 15 215 8.0 12.9 0.00 0.00 0.00 36 1002.8
20260504014503 15 217 8.0 11.3 0.00 0.00 0.00 36 1000.7
20260504014008 16 220 8.0 12.9 0.00 0.00 0.00 35 1003.0
20260504013506 16 229 9.7 12.9 0.00 0.00 0.00 34 1003.1
20260504013032 16 231 8.0 11.3 0.00 0.00 0.00 34 1003.1
20260504013001 16 231 8.0 11.3 0.00 0.00 0.00 34 1001.0
20260504012506 17 231 6.4 12.9 0.00 0.00 0.00 33 1003.3
20260504012011 17 229 9.7 17.7 0.00 0.00 0.00 32 1003.5
20260504011600 18 238 9.7 17.7 0.00 0.00 0.00 31 1001.3
20260504011522 18 229 11.3 17.7 0.00 0.00 0.00 30 1003.5
20260504011012 18 226 14.5 17.7 0.00 0.00 0.00 28 1003.6
20260504010510 18 243 14.5 17.7 0.00 0.00 0.00 28 1003.8
20260504010056 18 215 14.5 20.9 0.00 0.00 0.00 27 1001.7
20260504010026 19 240 14.5 20.9 0.00 0.00 0.00 27 1003.8
20260504005508 19 236 16.1 20.9 0.00 0.00 0.00 26 1003.9
20260504005004 19 248 16.1 25.7 0.00 0.00 0.00 25 1003.9
20260504004554 20 237 17.7 25.7 0.00 0.00 0.00 25 1001.9
20260504004511 20 252 17.7 25.7 0.00 0.00 0.00 24 1004.1
20260504004002 20 244 19.3 25.7 0.00 0.00 0.00 24 1004.3
20260504003505 20 252 19.3 30.6 0.00 0.00 0.00 23 1004.4
20260504003051 20 251 17.7 33.8 0.00 0.00 0.00 23 1002.2
20260504003026 20 240 19.3 33.8 0.00 0.00 0.00 23 1004.4
20260504002506 21 233 20.9 33.8 0.00 0.00 0.00 22 1004.5
20260504002007 21 231 22.5 33.8 0.00 0.00 0.00 22 1004.6
20260504001553 21 274 16.1 29.0 0.00 0.00 0.00 22 1002.3
20260504001520 21 214 17.7 29.0 0.00 0.00 0.00 21 1004.6
20260504001006 21 264 17.7 32.2 0.00 0.00 0.00 22 1004.7
20260504000507 21 231 22.5 32.2 0.00 0.00 0.00 21 1004.7
20260504000052 21 269 19.3 29.0 0.00 0.00 0.00 21 1002.5
20260504000023 21 269 17.7 27.4 0.00 0.00 0.00 20 1004.8
20260503235508 21 270 11.3 41.8 0.00 0.00 0.00 20 1004.9
20260503235009 21 285 12.9 41.8 0.00 0.00 0.00 20 1005.0
20260503234546 21 247 27.4 41.8 0.00 0.00 0.00 20 1002.7
20260503234524 22 283 25.7 33.8 0.00 0.00 0.00 19 1005.0
20260503234009 22 266 6.4 27.4 0.00 0.00 0.00 21 1005.1
20260503233505 22 283 12.9 27.4 0.00 0.00 0.00 21 1005.2
20260503233043 22 235 14.5 32.2 0.00 0.00 0.00 20 1002.9
20260503233010 22 282 14.5 32.2 0.00 0.00 0.00 19 1005.2
20260503232503 22 262 17.7 32.2 0.00 0.00 0.00 21 1005.3
20260503232006 22 236 11.3 27.4 0.00 0.00 0.00 21 1005.4
20260503231542 22 255 12.9 27.4 0.00 0.00 0.00 22 1002.9
20260503231519 22 240 12.9 29.0 0.00 0.00 0.00 23 1005.3
20260503231007 22 221 14.5 35.4 0.00 0.00 0.00 22 1005.4
20260503230509 22 304 24.1 35.4 0.00 0.00 0.00 21 1005.5
20260503230044 22 285 9.7 29.0 0.00 0.00 0.00 21 1003.2
20260503230022 22 288 8.0 29.0 0.00 0.00 0.00 21 1005.5
20260503225506 22 267 14.5 29.0 0.00 0.00 0.00 21 1005.6
20260503225009 22 273 12.9 29.0 0.00 0.00 0.00 23 1005.6
20260503224540 22 270 6.4 29.0 0.00 0.00 0.00 22 1003.3
20260503224528 22 285 9.7 29.0 0.00 0.00 0.00 22 1005.7
20260503224012 22 238 17.7 29.0 0.00 0.00 0.00 21 1005.6
20260503223510 22 236 16.1 29.0 0.00 0.00 0.00 22 1005.7
20260503223036 22 236 12.9 27.4 0.00 0.00 0.00 21 1003.5
20260503223027 22 257 12.9 27.4 0.00 0.00 0.00 21 1005.8
20260503222510 22 293 12.9 27.4 0.00 0.00 0.00 21 1005.9
20260503222004 22 252 9.7 24.1 0.00 0.00 0.00 22 1005.9
20260503221535 22 293 8.0 24.1 0.00 0.00 0.00 22 1003.7
20260503221512 22 289 8.0 24.1 0.00 0.00 0.00 23 1006.0
20260503221007 22 260 12.9 24.1 0.00 0.00 0.00 22 1006.3
20260503220508 22 271 8.0 22.5 0.00 0.00 0.00 24 1006.4
20260503220032 22 236 8.0 22.5 0.00 0.00 0.00 22 1004.0
20260503220021 22 273 9.7 22.5 0.00 0.00 0.00 23 1006.6
20260503215506 21 240 12.9 29.0 0.00 0.00 0.00 23 1006.6
20260503215007 22 264 9.7 29.0 0.00 0.00 0.00 24 1006.7
20260503214539 21 270 14.5 29.0 0.00 0.00 0.00 23 1004.4
20260503214523 21 251 17.7 29.0 0.00 0.00 0.00 23 1006.8
20260503214009 22 281 6.4 32.2 0.00 0.00 0.00 24 1006.9
20260503213510 21 271 8.0 32.2 0.00 0.00 0.00 26 1007.0
20260503213025 21 258 8.0 29.0 0.00 0.00 0.00 25 1004.7
20260503213023 21 252 8.0 29.0 0.00 0.00 0.00 24 1007.0
20260503212508 21 265 12.9 29.0 0.00 0.00 0.00 24 1007.2
20260503212003 21 253 16.1 29.0 0.00 0.00 0.00 26 1007.3
20260503211523 21 297 6.4 27.4 0.00 0.00 0.00 25 1005.1
20260503211514 21 224 8.0 27.4 0.00 0.00 0.00 25 1007.3
20260503211004 21 306 4.8 25.7 0.00 0.00 0.00 26 1007.5
20260503210507 21 200 11.3 25.7 0.00 0.00 0.00 25 1007.5
20260503210020 21 244 14.5 22.5 0.00 0.00 0.00 25 1005.3
20260503210017 21 292 14.5 22.5 0.00 0.00 0.00 25 1007.5
20260503205508 21 324 8.0 19.3 0.00 0.00 0.00 23 1007.5
20260503205006 21 291 6.4 27.4 0.00 0.00 0.00 26 1007.6
20260503204522 21 249 9.7 27.4 0.00 0.00 0.00 29 1007.6
20260503204518 21 271 9.7 27.4 0.00 0.00 0.00 29 1005.6
20260503204010 21 229 16.1 24.1 0.00 0.00 0.00 25 1007.7
20260503203508 21 236 11.3 24.1 0.00 0.00 0.00 25 1007.8
20260503203031 21 276 3.2 20.9 0.00 0.00 0.00 28 1007.8
20260503203016 21 271 3.2 17.7 0.00 0.00 0.00 29 1005.8
20260503202511 21 307 6.4 22.5 0.00 0.00 0.00 28 1008.0
20260503202005 21 291 6.4 22.5 0.00 0.00 0.00 26 1008.2
20260503201513 21 306 6.4 19.3 0.00 0.00 0.00 28 1006.3
20260503201509 21 269 6.4 19.3 0.00 0.00 0.00 29 1008.4
20260503201004 21 264 11.3 17.7 0.00 0.00 0.00 26 1008.4
20260503200503 21 306 6.4 17.7 0.00 0.00 0.00 28 1008.5
20260503200013 21 263 4.8 17.7 0.00 0.00 0.00 27 1008.7
20260503195504 20 51 4.8 16.1 0.00 0.00 0.00 26 1008.8
20260503195008 21 304 4.8 12.9 0.00 0.00 0.00 30 1008.9
20260503194518 20 299 6.4 24.1 0.00 0.00 0.00 29 1009.0
20260503194508 20 315 6.4 24.1 0.00 0.00 0.00 26 1006.8
20260503194007 20 6 6.4 24.1 0.00 0.00 0.00 29 1009.0
20260503193509 20 321 11.3 19.3 0.00 0.00 0.00 29 1009.1
20260503193020 20 306 9.7 17.7 0.00 0.00 0.00 28 1009.2
20260503193007 20 329 8.0 17.7 0.00 0.00 0.00 28 1007.1
20260503192506 20 320 4.8 16.1 0.00 0.00 0.00 29 1009.3
20260503192007 20 272 6.4 20.9 0.00 0.00 0.00 29 1009.6
20260503191525 20 311 9.7 20.9 0.00 0.00 0.00 29 1009.5
20260503191514 20 354 9.7 20.9 0.00 0.00 0.00 29 1007.4
20260503191010 19 13 6.4 20.9 0.00 0.00 0.00 30 1009.7
20260503190504 19 292 11.3 22.5 0.00 0.00 0.00 31 1009.8
20260503190010 19 294 8.0 22.5 0.00 0.00 0.00 30 1009.9
20260503190006 19 289 8.0 22.5 0.00 0.00 0.00 30 1007.7
20260503185503 19 323 11.3 20.9 0.00 0.00 0.00 30 1009.9
20260503185004 19 335 4.8 12.9 0.00 0.00 0.00 31 1009.9
20260503184518 19 252 4.8 17.7 0.00 0.00 0.00 33 1010.0
20260503184503 19 252 4.8 17.7 0.00 0.00 0.00 34 1007.9
20260503184003 18 316 8.0 17.7 0.00 0.00 0.00 29 1010.1
20260503183508 18 293 9.7 19.3 0.00 0.00 0.00 30 1010.1
20260503183102 18 300 6.4 19.3 0.00 0.00 0.00 32 1008.3
20260503183024 18 295 11.3 19.3 0.00 0.00 0.00 30 1010.3
20260503182507 18 283 6.4 14.5 0.00 0.00 0.00 32 1010.3
20260503182014 18 24 6.4 14.5 0.00 0.00 0.00 31 1010.4
20260503181614 18 308 3.2 20.9 0.00 0.00 0.00 35 1008.5
20260503181524 18 265 6.4 20.9 0.00 0.00 0.00 31 1010.6
20260503181008 18 355 11.3 20.9 0.00 0.00 0.00 30 1010.9
20260503180509 18 306 8.0 25.7 0.00 0.00 0.00 29 1011.0
20260503180116 18 306 11.3 25.7 0.00 0.00 0.00 29 1008.9
20260503180031 18 43 12.9 25.7 0.00 0.00 0.00 29 1011.1
20260503175513 18 323 6.4 24.1 0.00 0.00 0.00 30 1011.1
20260503175002 18 15 12.9 24.1 0.00 0.00 0.00 28 1011.2
20260503174559 18 330 8.0 17.7 0.00 0.00 0.00 29 1009.3
20260503174512 18 316 9.7 19.3 0.00 0.00 0.00 29 1011.2
20260503174005 17 299 6.4 25.7 0.00 0.00 0.00 29 1011.2
20260503173506 17 307 14.5 25.7 0.00 0.00 0.00 28 1011.3
20260503173103 17 272 4.8 19.3 0.00 0.00 0.00 29 1009.3
20260503173015 17 42 8.0 20.9 0.00 0.00 0.00 28 1011.3
20260503172506 17 309 12.9 24.1 0.00 0.00 0.00 28 1011.4
20260503172010 17 319 6.4 24.1 0.00 0.00 0.00 27 1011.3
20260503171553 17 311 16.1 24.1 0.00 0.00 0.00 29 1009.4
20260503171522 17 311 11.3 22.5 0.00 0.00 0.00 27 1011.4
20260503171008 17 271 8.0 19.3 0.00 0.00 0.00 29 1011.4
20260503170507 17 318 11.3 19.3 0.00 0.00 0.00 31 1011.4
20260503151006 13 300 4.8 9.7 0.00 0.00 0.00 40 1012.3
20260503150506 13 335 4.8 9.7 0.00 0.00 0.00 41 1012.2
20260503131010 7 311 6.4 9.7 0.00 0.00 0.00 72 1012.7
20260503130507 7 324 4.8 8.0 0.00 0.00 0.00 74 1012.6
20260503110502 5 323 4.8 9.7 0.00 0.00 0.00 80 1011.3
20260503100111 5 313 6.4 12.9 0.00 0.00 0.00 80 1009.9